STARLINK-35973, 66632

Orbit data source: Space-Track

STARLINK-35973, 66632 is a payload satellite owned by SpaceX/Seattle (US) in LEO that was launched on Sun, 23 Nov 2025 UTC via an FALCON 9 launch vehicle from the Air Force Western Test Range (AFWTR). Payload-class satellites include a variety of spacecraft equipped with specific instruments for various scientific and technological missions. These include communications satellites like Starlink; space stations such as the ISS; scientific satellites like the Hubble; Earth observation satellites from companies like Planet Labs, Umbra, and HawkEye 360; GPS; miniature CubeSats for education and research; and military/defense satellites.

Loading next visibility...
Identifier
66632, 2025-271R
Orbit
LEO
Country
Flag of USUS
Related business
Manufacturer
SpaceX/Seattle
Mission
Operational Commercial Communications
Bus & Motor
STARLINK V2MO, Unknown motor
Mass
575 kg wet, ~530 kg dry
Launch date (UTC)
2025-11-23 (1 month ago)
Launch vehicle
FALCON 9
Launch site
Air Force Western Test Range (AFWTR)
Object type
Payload
Rocket body
Debris
Shape & HBR
Box + 2 Pan, 17.7 m
Radar Cross Section
36.964 m²

Expand to show TLE details & history
Last TLE update: 19 hours ago

TLE from 19 hours ago
0 STARLINK-35973
1 66632U 25271R   25354.81979496  .00028954  00000-0  73081-3 0  9992
2 66632  53.1603 148.9553 0001223  63.4420 296.6710 15.39631225  5413
Epoch: 2025-12-20T19:40Z
TLE epoch observation values (Epoch: 2025-12-20T19:40:30.284Z)
Latitude
-0.00003°
Longitude
124.18797°
Altitude
447.728 km
Speed
7.645 km/s
True Right ascension
09h 55m 49s
True Declination
0° 00' 00"
Sunlit
Object was in full shadow at epoch
Visualization orbit readout
Latitude
Unknown
Longitude
Unknown
Altitude
Unknown
Speed
Unknown
Apparent Right ascension
Unknown
Apparent Declination
Unknown
Sunlit
N/A
Visualization observer readout
Local Sidereal Time
13:58:19
Azimuth
Unknown
Elevation
Unknown
Doppler factor
Unknown
Orbital elements
Apogee altitude
448.291 km
Perigee altitude
446.622 km
Semi-major axis
6,825.593 km
Eccentricity
0.00012
Inclination
53.1603°
RAAN
148.9553°
Arg. of periapsis
63.442°
True anomaly
296.65848°
Mean anomaly
296.671°
Eccentric anomaly
296.66474°
Mean motion
3.84886 °/min
Orbital period
93.53 mins
BSTAR
0.00073081
Loading maneuver chart data...
Computing Atmospheric mass density...
Loading historical data...
Loading historical data...
Loading historical data...
Loading historical data...
Loading historical data...
Loading historical data...
Loading historical data...

Documentation

Showing up to 5 results
|